[[{"header":{"parameterUnit":"m.s-1","parameterCategory":1,"la1":30.2992,"la2":30.254,"lo1":-89.0895,"lo2":-89.0443,"dy":0.0025,"dx":0.0025,"nx":19,"ny":19,"refTime":"2026-05-22T09:00:00:Z","depth":0,"parameterNumber":2,"parameterNumberName":"U-component_of_WINDS"},"data":[0,0,0,-0.8861,-0.8861,-0.885,-0.885,-0.884,-0.884,0,0,0,0,0,0,0,0,0,0,0,-0.8868,-0.8868,-0.8861,-0.8861,-0.885,-0.885,-0.884,-0.884,0,0,0,0,0,0,0,0,0,0,0,-0.8868,-0.8868,-0.8868,-0.8861,-0.885,-0.885,-0.884,-0.8847,0,0,0,0,0,0,0,0,0,0,-0.8858,-0.8866,-0.8868,-0.8868,-0.8861,-0.885,-0.885,-0.8847,-0.8847,-0.8848,0,-0.885,0,-0.8845,-0.884,-0.884,0,0,0,-0.8859,-0.8867,-0.8861,-0.8868,-0.8861,-0.885,-0.8854,-0.8847,-0.8846,-0.8847,-0.885,-0.8849,-0.8845,-0.884,-0.884,-0.8856,-0.8856,0,0,-0.8859,-0.8867,-0.8862,-0.8861,-0.8863,-0.8855,-0.8854,-0.8846,-0.885,-0.885,-0.8849,-0.8845,-0.884,-0.884,-0.8856,-0.8856,0,0,0,-0.8863,-0.8868,-0.8862,-0.8861,-0.8859,-0.8854,-0.8853,-0.885,-0.8847,-0.8849,-0.8845,-0.884,-0.884,-0.8856,-0.8856,-0.8873,0,0,0,-0.8863,-0.887,-0.8863,-0.8867,-0.8859,-0.8854,-0.8857,-0.8848,-0.8847,-0.8845,-0.884,-0.884,-0.8856,-0.8856,-0.8872,-0.8878,0,0,0,-0.8868,-0.887,-0.887,-0.8868,-0.8863,-0.8854,-0.8851,-0.8847,-0.8845,-0.884,-0.884,-0.8855,-0.8856,-0.8871,-0.8877,-0.8885,0,0,0,-0.8875,-0.8884,-0.887,-0.888,-0.8863,-0.8865,-0.8851,-0.8852,-0.885,-0.884,-0.8856,-0.8856,-0.8871,-0.8876,-0.8884,-0.8892,-0.8896,0,0,-0.8891,-0.8887,-0.8892,-0.8879,-0.8885,-0.8866,-0.8875,-0.8865,-0.8858,-0.8857,-0.8858,-0.8872,-0.8877,-0.8884,-0.892,-0.8923,0,0,0,-0.89,-0.8903,-0.8904,-0.8903,-0.8897,-0.8892,-0.8881,-0.8878,-0.8877,-0.8859,-0.8877,-0.888,-0.8884,-0.8887,-0.889,-0.8893,-0.8858,-0.8858,-0.8858,-0.8933,-0.8924,-0.8932,-0.8922,-0.8921,-0.8911,-0.891,-0.8904,-0.8894,-0.8899,-0.8897,-0.892,-0.8924,-0.8926,-0.8929,-0.8902,-0.8902,-0.8902,-0.8902,-0.8956,-0.896,-0.8948,-0.8951,-0.8942,-0.8945,-0.8936,-0.8929,-0.8931,-0.8919,-0.8923,-0.891,-0.893,-0.8932,-0.8903,-0.8903,-0.8903,-0.8903,-0.8903,-0.8976,-0.8976,-0.8973,-0.8972,-0.8972,-0.8962,-0.8964,-0.8956,-0.8948,-0.8951,-0.8949,-0.8949,-0.8946,-0.8951,-0.8951,-0.8951,-0.8951,-0.8951,-0.8951,-0.8997,-0.8993,-0.8996,-0.8992,-0.8991,-0.8989,-0.898,-0.8979,-0.8976,-0.8969,-0.8969,-0.8959,-0.8935,-0.8928,-0.8953,-0.8952,-0.8952,-0.8952,-0.8952,-0.902,-0.9014,-0.9018,-0.9018,-0.9013,-0.9014,-0.9005,-0.9004,-0.9002,-0.9003,-0.8994,-0.8978,-0.8972,-0.8969,-0.8963,-0.8996,-0.8996,-0.8996,-0.8996,-0.9036,-0.9033,-0.9036,-0.9036,-0.9034,-0.9027,-0.9033,-0.9027,-0.902,-0.9019,-0.9013,-0.9006,-0.9004,-0.8999,-0.8996,-0.899,-0.9029,-0.9029,-0.9029,-0.905,-0.9047,-0.9052,-0.9046,-0.9043,-0.904,-0.9045,-0.9046,-0.9037,-0.903,-0.9017,-0.9016,-0.9003,-0.9,-0.899,-0.8986,-0.8976,0,0]},{"header":{"parameterUnit":"m.s-1","parameterCategory":1,"la1":30.2992,"la2":30.254,"lo1":-89.0895,"lo2":-89.0443,"dy":0.0025,"dx":0.0025,"nx":19,"ny":19,"refTime":"2026-05-22T09:00:00:Z","depth":0,"parameterNumber":3,"parameterNumberName":"V-component_of_WINDS"},"data":[0,0,0,2.8799,2.88,2.8844,2.8845,2.8877,2.8877,0,0,0,0,0,0,0,0,0,0,0,2.8774,2.8774,2.8799,2.88,2.8844,2.8845,2.8877,2.8877,0,0,0,0,0,0,0,0,0,0,0,2.8774,2.8774,2.8773,2.88,2.8844,2.8845,2.8877,2.8852,0,0,0,0,0,0,0,0,0,0,2.8813,2.8777,2.8774,2.8773,2.88,2.8844,2.8845,2.8851,2.8853,2.8848,0,2.8841,0,2.8859,2.8878,2.8878,0,0,0,2.8809,2.8775,2.8799,2.8773,2.8801,2.8844,2.8827,2.8853,2.8855,2.8851,2.8841,2.8843,2.886,2.8878,2.8878,2.8817,2.8816,0,0,2.8807,2.8775,2.8797,2.88,2.8794,2.8825,2.8828,2.8855,2.8842,2.8842,2.8844,2.8861,2.8878,2.8878,2.8817,2.8816,0,0,0,2.8793,2.8772,2.8796,2.8798,2.8808,2.8826,2.883,2.8841,2.8851,2.8845,2.8861,2.8878,2.8879,2.8818,2.8817,2.8749,0,0,0,2.8792,2.8765,2.8794,2.8775,2.8807,2.8825,2.8814,2.8849,2.8853,2.8861,2.8878,2.8879,2.8819,2.8818,2.8753,2.8722,0,0,0,2.8775,2.8763,2.8765,2.8773,2.8791,2.8826,2.8838,2.8851,2.8862,2.8878,2.8879,2.882,2.8818,2.8756,2.8727,2.8694,0,0,0,2.8747,2.8706,2.8764,2.8724,2.8791,2.8784,2.8838,2.8835,2.8841,2.8878,2.8819,2.8817,2.8757,2.8731,2.8697,2.8659,2.864,0,0,2.8677,2.8696,2.8675,2.8728,2.8703,2.878,2.8745,2.878,2.8811,2.8812,2.8811,2.8752,2.8728,2.8695,2.8553,2.8538,0,0,0,2.8642,2.8626,2.8626,2.863,2.8657,2.8676,2.872,2.8733,2.8736,2.8806,2.8733,2.872,2.8702,2.8685,2.8672,2.8657,2.8809,2.8809,2.8809,2.8495,2.8537,2.8503,2.8549,2.8552,2.8598,2.8603,2.8628,2.867,2.8651,2.8651,2.856,2.8539,2.853,2.8514,2.8637,2.8636,2.8636,2.8636,2.8394,2.8376,2.8432,2.8419,2.8462,2.8452,2.8493,2.8522,2.8517,2.8565,2.8551,2.8596,2.8512,2.85,2.8631,2.8632,2.8633,2.8633,2.8634,2.83,2.8299,2.8316,2.8324,2.8326,2.8374,2.8366,2.8406,2.8444,2.8431,2.8433,2.8434,2.8438,2.8429,2.8429,2.8429,2.8429,2.8428,2.8428,2.8195,2.8216,2.8205,2.8228,2.8235,2.8249,2.8293,2.83,2.8318,2.8348,2.8348,2.8388,2.8498,2.8522,2.8423,2.8424,2.8425,2.8425,2.8426,2.8072,2.8106,2.8089,2.8095,2.8124,2.8121,2.8174,2.8184,2.8196,2.8189,2.8234,2.8309,2.8331,2.8341,2.8362,2.8227,2.8227,2.8227,2.8227,2.7991,2.8007,2.7996,2.8003,2.8015,2.806,2.8035,2.8068,2.8108,2.8117,2.8143,2.8175,2.8184,2.82,2.8214,2.8233,2.8069,2.8069,2.8069,2.7916,2.7935,2.7907,2.7947,2.7972,2.7992,2.7969,2.7973,2.8026,2.8063,2.8124,2.8131,2.8183,2.8198,2.8235,2.8255,2.8292,0,0]}]]